Year,Month,Day,Hour,Minute,Value (Times are PST for temperature in C)
2009,07,28,00,00,24.60
2009,07,28,00,01,24.50
2009,07,28,00,02,24.50
2009,07,28,00,03,24.50
2009,07,28,00,04,24.40
2009,07,28,00,05,24.40
2009,07,28,00,06,24.40
2009,07,28,00,07,24.30
2009,07,28,00,08,24.30
2009,07,28,00,09,24.30
2009,07,28,00,10,24.20
2009,07,28,00,11,24.20
2009,07,28,00,12,24.20
2009,07,28,00,13,24.20
2009,07,28,00,14,24.10
2009,07,28,00,15,24.10
2009,07,28,00,16,24.10
2009,07,28,00,17,24.10
2009,07,28,00,18,24.10
2009,07,28,00,19,24.10
2009,07,28,00,20,24.10
2009,07,28,00,21,24.10
2009,07,28,00,22,24.10
2009,07,28,00,23,24.10
2009,07,28,00,24,24.10
2009,07,28,00,25,24.10
2009,07,28,00,26,24.10
2009,07,28,00,27,24.10
2009,07,28,00,28,24.00
2009,07,28,00,29,23.90
2009,07,28,00,30,23.90
2009,07,28,00,31,23.90
2009,07,28,00,32,23.90
2009,07,28,00,33,23.90
2009,07,28,00,34,23.80
2009,07,28,00,35,23.80
2009,07,28,00,36,23.80
2009,07,28,00,37,23.70
2009,07,28,00,38,23.70
2009,07,28,00,39,23.70
2009,07,28,00,40,23.70
2009,07,28,00,41,23.70
2009,07,28,00,42,23.60
2009,07,28,00,43,23.60
2009,07,28,00,44,23.60
2009,07,28,00,45,23.60
2009,07,28,00,46,23.40
2009,07,28,00,47,23.40
2009,07,28,00,48,23.40
2009,07,28,00,49,23.40
2009,07,28,00,50,23.30
2009,07,28,00,51,23.30
2009,07,28,00,52,23.30
2009,07,28,00,53,23.30
2009,07,28,00,54,23.30
2009,07,28,00,55,23.30
2009,07,28,00,56,23.30
2009,07,28,00,57,23.30
2009,07,28,00,58,23.20
2009,07,28,00,59,23.20
2009,07,28,01,00,23.20
2009,07,28,01,01,23.20
2009,07,28,01,02,23.20
2009,07,28,01,03,23.20
2009,07,28,01,04,23.20
2009,07,28,01,05,23.20
2009,07,28,01,06,23.20
2009,07,28,01,07,23.20
2009,07,28,01,08,23.20
2009,07,28,01,09,23.10
2009,07,28,01,10,23.10
2009,07,28,01,11,23.10
2009,07,28,01,12,23.10
2009,07,28,01,13,23.10
2009,07,28,01,14,22.90
2009,07,28,01,15,22.90
2009,07,28,01,16,22.90
2009,07,28,01,17,22.90
2009,07,28,01,18,22.90
2009,07,28,01,19,22.90
2009,07,28,01,20,22.90
2009,07,28,01,21,22.80
2009,07,28,01,22,22.80
2009,07,28,01,23,22.80
2009,07,28,01,24,22.70
2009,07,28,01,25,22.70
2009,07,28,01,26,22.70
2009,07,28,01,27,22.70
2009,07,28,01,28,22.60
2009,07,28,01,29,22.60
2009,07,28,01,30,22.60
2009,07,28,01,31,22.50
2009,07,28,01,32,22.50
2009,07,28,01,33,22.50
2009,07,28,01,34,22.50
2009,07,28,01,35,22.50
2009,07,28,01,36,22.50
2009,07,28,01,37,22.50
2009,07,28,01,38,22.50
2009,07,28,01,39,22.50
2009,07,28,01,40,22.50
2009,07,28,01,41,22.50
2009,07,28,01,42,22.60
2009,07,28,01,43,22.60
2009,07,28,01,44,22.60
2009,07,28,01,45,22.60
2009,07,28,01,46,22.60
2009,07,28,01,47,22.60
2009,07,28,01,48,22.70
2009,07,28,01,49,22.70
2009,07,28,01,50,22.70
2009,07,28,01,51,22.70
2009,07,28,01,52,22.70
2009,07,28,01,53,22.60
2009,07,28,01,54,22.60
2009,07,28,01,55,22.60
2009,07,28,01,56,22.60
2009,07,28,01,57,22.60
2009,07,28,01,58,22.50
2009,07,28,01,59,22.50
2009,07,28,02,00,22.50
2009,07,28,02,01,22.50
2009,07,28,02,02,22.40
2009,07,28,02,03,22.40
2009,07,28,02,04,22.40
2009,07,28,02,05,22.40
2009,07,28,02,06,22.40
2009,07,28,02,07,22.30
2009,07,28,02,08,22.30
2009,07,28,02,09,22.30
2009,07,28,02,10,22.30
2009,07,28,02,11,22.20
2009,07,28,02,12,22.20
2009,07,28,02,13,22.20
2009,07,28,02,14,22.20
2009,07,28,02,15,22.10
2009,07,28,02,16,22.10
2009,07,28,02,17,22.10
2009,07,28,02,18,22.00
2009,07,28,02,19,22.00
2009,07,28,02,20,22.00
2009,07,28,02,21,21.90
2009,07,28,02,22,21.90
2009,07,28,02,23,21.90
2009,07,28,02,24,21.80
2009,07,28,02,25,21.80
2009,07,28,02,26,21.80
2009,07,28,02,27,21.80
2009,07,28,02,28,21.80
2009,07,28,02,29,21.70
2009,07,28,02,30,21.70
2009,07,28,02,31,21.70
2009,07,28,02,32,21.70
2009,07,28,02,33,21.60
2009,07,28,02,34,21.60
2009,07,28,02,35,21.60
2009,07,28,02,36,21.60
2009,07,28,02,37,21.60
2009,07,28,02,38,21.60
2009,07,28,02,39,21.60
2009,07,28,02,40,21.60
2009,07,28,02,41,21.60
2009,07,28,02,42,21.50
2009,07,28,02,43,21.40
2009,07,28,02,44,21.40
2009,07,28,02,45,21.40
2009,07,28,02,46,21.40
2009,07,28,02,47,21.30
2009,07,28,02,48,21.30
2009,07,28,02,49,21.30
2009,07,28,02,50,21.30
2009,07,28,02,51,21.30
2009,07,28,02,52,21.30
2009,07,28,02,53,21.30
2009,07,28,02,54,21.30
2009,07,28,02,55,21.30
2009,07,28,02,56,21.30
2009,07,28,02,57,21.30
2009,07,28,02,58,21.30
2009,07,28,02,59,21.30
2009,07,28,03,00,21.30
2009,07,28,03,01,21.30
2009,07,28,03,02,21.30
2009,07,28,03,03,21.30
2009,07,28,03,04,21.30
2009,07,28,03,05,21.30
2009,07,28,03,06,21.20
2009,07,28,03,07,21.20
2009,07,28,03,08,21.20
2009,07,28,03,09,21.20
2009,07,28,03,10,21.20
2009,07,28,03,11,21.10
2009,07,28,03,12,21.10
2009,07,28,03,13,21.10
2009,07,28,03,14,21.10
2009,07,28,03,15,21.10
2009,07,28,03,16,21.00
2009,07,28,03,17,21.00
2009,07,28,03,18,21.00
2009,07,28,03,19,21.00
2009,07,28,03,20,21.00
2009,07,28,03,21,21.00
2009,07,28,03,22,21.00
2009,07,28,03,23,21.00
2009,07,28,03,24,21.00
2009,07,28,03,25,21.00
2009,07,28,03,26,21.00
2009,07,28,03,27,20.90
2009,07,28,03,28,20.90
2009,07,28,03,29,20.90
2009,07,28,03,30,20.90
2009,07,28,03,31,20.90
2009,07,28,03,32,20.90
2009,07,28,03,33,20.90
2009,07,28,03,34,20.80
2009,07,28,03,35,20.80
2009,07,28,03,36,20.80
2009,07,28,03,37,20.80
2009,07,28,03,38,20.80
2009,07,28,03,39,20.80
2009,07,28,03,40,20.80
2009,07,28,03,41,20.80
2009,07,28,03,42,20.70
2009,07,28,03,43,20.70
2009,07,28,03,44,20.70
2009,07,28,03,45,20.70
2009,07,28,03,46,20.70
2009,07,28,03,47,20.70
2009,07,28,03,48,20.70
2009,07,28,03,49,20.60
2009,07,28,03,50,20.60
2009,07,28,03,51,20.60
2009,07,28,03,52,20.60
2009,07,28,03,53,20.50
2009,07,28,03,54,20.50
2009,07,28,03,55,20.50
2009,07,28,03,56,20.50
2009,07,28,03,57,20.50
2009,07,28,03,58,20.50
2009,07,28,03,59,20.40
2009,07,28,04,00,20.40
2009,07,28,04,01,20.40
2009,07,28,04,02,20.40
2009,07,28,04,03,20.30
2009,07,28,04,04,20.30
2009,07,28,04,05,20.30
2009,07,28,04,06,20.30
2009,07,28,04,07,20.20
2009,07,28,04,08,20.20
2009,07,28,04,09,20.20
2009,07,28,04,10,20.20
2009,07,28,04,11,20.20
2009,07,28,04,12,20.10
2009,07,28,04,13,20.10
2009,07,28,04,14,19.90
2009,07,28,04,15,19.90
2009,07,28,04,16,19.90
2009,07,28,04,17,19.90
2009,07,28,04,18,19.80
2009,07,28,04,19,19.80
2009,07,28,04,20,19.70
2009,07,28,04,21,19.70
2009,07,28,04,22,19.60
2009,07,28,04,23,19.60
2009,07,28,04,24,19.60
2009,07,28,04,25,19.50
2009,07,28,04,26,19.50
2009,07,28,04,27,19.50
2009,07,28,04,28,19.50
2009,07,28,04,29,19.50
2009,07,28,04,30,19.50
2009,07,28,04,31,19.50
2009,07,28,04,32,19.40
2009,07,28,04,33,19.40
2009,07,28,04,34,19.40
2009,07,28,04,35,19.40
2009,07,28,04,36,19.50
2009,07,28,04,37,19.50
2009,07,28,04,38,19.50
2009,07,28,04,39,19.50
2009,07,28,04,40,19.50
2009,07,28,04,41,19.50
2009,07,28,04,42,19.50
2009,07,28,04,43,19.50
2009,07,28,04,44,19.50
2009,07,28,04,45,19.50
2009,07,28,04,46,19.50
2009,07,28,04,47,19.60
2009,07,28,04,48,19.60
2009,07,28,04,49,19.60
2009,07,28,04,50,19.60
2009,07,28,04,51,19.60
2009,07,28,04,52,19.60
2009,07,28,04,53,19.60
2009,07,28,04,54,19.60
2009,07,28,04,55,19.60
2009,07,28,04,56,19.60
2009,07,28,04,57,19.60
2009,07,28,04,58,19.50
2009,07,28,04,59,19.60
2009,07,28,05,00,19.60
2009,07,28,05,01,19.60
2009,07,28,05,02,19.50
2009,07,28,05,03,19.50
2009,07,28,05,04,19.50
2009,07,28,05,05,19.50
2009,07,28,05,06,19.50
2009,07,28,05,07,19.50
2009,07,28,05,08,19.40
2009,07,28,05,09,19.40
2009,07,28,05,10,19.40
2009,07,28,05,11,19.30
2009,07,28,05,12,19.30
2009,07,28,05,13,19.20
2009,07,28,05,14,19.10
2009,07,28,05,15,19.10
2009,07,28,05,16,19.10
2009,07,28,05,17,19.00
2009,07,28,05,18,18.90
2009,07,28,05,19,18.90
2009,07,28,05,20,18.90
2009,07,28,05,21,18.80
2009,07,28,05,22,18.70
2009,07,28,05,23,18.50
2009,07,28,05,24,18.40
2009,07,28,05,25,18.40
2009,07,28,05,26,18.30
2009,07,28,05,27,18.30
2009,07,28,05,28,18.30
2009,07,28,05,29,18.20
2009,07,28,05,30,18.20
2009,07,28,05,31,18.20
2009,07,28,05,32,18.20
2009,07,28,05,33,18.10
2009,07,28,05,34,18.10
2009,07,28,05,35,18.10
2009,07,28,05,36,18.10
2009,07,28,05,37,18.10
2009,07,28,05,38,18.00
2009,07,28,05,39,17.90
2009,07,28,05,40,17.90
2009,07,28,05,41,17.90
2009,07,28,05,42,17.90
2009,07,28,05,43,17.90
2009,07,28,05,44,18.00
2009,07,28,05,45,18.10
2009,07,28,05,46,18.10
2009,07,28,05,47,18.10
2009,07,28,05,48,18.10
2009,07,28,05,49,18.10
2009,07,28,05,50,18.20
2009,07,28,05,51,18.20
2009,07,28,05,52,18.20
2009,07,28,05,53,18.20
2009,07,28,05,54,18.20
2009,07,28,05,55,18.20
2009,07,28,05,56,18.20
2009,07,28,05,57,18.20
2009,07,28,05,58,18.20
2009,07,28,05,59,18.20
2009,07,28,06,00,18.20
2009,07,28,06,01,18.30
2009,07,28,06,02,18.30
2009,07,28,06,03,18.30
2009,07,28,06,04,18.30
2009,07,28,06,05,18.30
2009,07,28,06,06,18.40
2009,07,28,06,07,18.40
2009,07,28,06,08,18.40
2009,07,28,06,09,18.40
2009,07,28,06,10,18.50
2009,07,28,06,11,18.50
2009,07,28,06,12,18.50
2009,07,28,06,13,18.50
2009,07,28,06,14,18.60
2009,07,28,06,15,18.60
2009,07,28,06,16,18.60
2009,07,28,06,17,18.60
2009,07,28,06,18,18.60
2009,07,28,06,19,18.60
2009,07,28,06,20,18.60
2009,07,28,06,21,18.60
2009,07,28,06,22,18.60
2009,07,28,06,23,18.60
2009,07,28,06,24,18.70
2009,07,28,06,25,18.70
2009,07,28,06,26,18.70
2009,07,28,06,27,18.70
2009,07,28,06,28,18.70
2009,07,28,06,29,18.70
2009,07,28,06,30,18.70
2009,07,28,06,31,18.70
2009,07,28,06,32,18.80
2009,07,28,06,33,18.80
2009,07,28,06,34,18.80
2009,07,28,06,35,18.80
2009,07,28,06,36,18.80
2009,07,28,06,37,18.90
2009,07,28,06,38,18.90
2009,07,28,06,39,18.90
2009,07,28,06,40,18.90
2009,07,28,06,41,18.90
2009,07,28,06,42,18.90
2009,07,28,06,43,18.90
2009,07,28,06,44,18.90
2009,07,28,06,45,19.00
2009,07,28,06,46,19.10
2009,07,28,06,47,19.10
2009,07,28,06,48,19.10
2009,07,28,06,49,19.10
2009,07,28,06,50,19.10
2009,07,28,06,51,19.10
2009,07,28,06,52,19.10
2009,07,28,06,53,19.10
2009,07,28,06,54,19.10
2009,07,28,06,55,19.10
2009,07,28,06,56,19.20
2009,07,28,06,57,19.20
2009,07,28,06,58,19.20
2009,07,28,06,59,19.30
2009,07,28,07,00,19.30
2009,07,28,07,01,19.40
2009,07,28,07,02,19.40
2009,07,28,07,03,19.40
2009,07,28,07,04,19.40
2009,07,28,07,05,19.40
2009,07,28,07,06,19.50
2009,07,28,07,07,19.50
2009,07,28,07,08,19.50
2009,07,28,07,09,19.50
2009,07,28,07,10,19.50
2009,07,28,07,11,19.60
2009,07,28,07,12,19.60
2009,07,28,07,13,19.60
2009,07,28,07,14,19.70
2009,07,28,07,15,19.70
2009,07,28,07,16,19.80
2009,07,28,07,17,19.90
2009,07,28,07,18,19.90
2009,07,28,07,19,19.90
2009,07,28,07,20,19.90
2009,07,28,07,21,20.00
2009,07,28,07,22,20.10
2009,07,28,07,23,20.20
2009,07,28,07,24,20.20
2009,07,28,07,25,20.20
2009,07,28,07,26,20.40
2009,07,28,07,27,20.40
2009,07,28,07,28,20.50
2009,07,28,07,29,20.60
2009,07,28,07,30,20.60
2009,07,28,07,31,20.60
2009,07,28,07,32,20.60
2009,07,28,07,33,20.60
2009,07,28,07,34,20.60
2009,07,28,07,35,20.60
2009,07,28,07,36,20.60
2009,07,28,07,37,20.60
2009,07,28,07,38,20.60
2009,07,28,07,39,20.60
2009,07,28,07,40,20.60
2009,07,28,07,41,20.50
2009,07,28,07,42,20.60
2009,07,28,07,43,20.60
2009,07,28,07,44,20.60
2009,07,28,07,45,20.60
2009,07,28,07,46,20.50
2009,07,28,07,47,20.40
2009,07,28,07,48,20.30
2009,07,28,07,49,20.20
2009,07,28,07,50,20.20
2009,07,28,07,51,20.20
2009,07,28,07,52,20.10
2009,07,28,07,53,20.10
2009,07,28,07,54,20.10
2009,07,28,07,55,20.10
2009,07,28,07,56,20.00
2009,07,28,07,57,19.90
2009,07,28,07,58,20.00
2009,07,28,07,59,20.10
2009,07,28,08,00,20.10
2009,07,28,08,01,20.10
2009,07,28,08,02,20.20
2009,07,28,08,03,20.20
2009,07,28,08,04,20.20
2009,07,28,08,05,20.20
2009,07,28,08,06,20.30
2009,07,28,08,07,20.40
2009,07,28,08,08,20.40
2009,07,28,08,09,20.50
2009,07,28,08,10,20.50
2009,07,28,08,11,20.60
2009,07,28,08,12,20.70
2009,07,28,08,13,20.80
2009,07,28,08,14,20.90
2009,07,28,08,15,21.00
2009,07,28,08,16,21.20
2009,07,28,08,17,21.30
2009,07,28,08,18,21.40
2009,07,28,08,19,21.60
2009,07,28,08,20,21.80
2009,07,28,08,21,22.00
2009,07,28,08,22,22.00
2009,07,28,08,23,22.20
2009,07,28,08,24,22.30
2009,07,28,08,25,22.40
2009,07,28,08,26,22.50
2009,07,28,08,27,22.60
2009,07,28,08,28,22.70
2009,07,28,08,29,22.90
2009,07,28,08,30,23.00
2009,07,28,08,31,23.10
2009,07,28,08,32,23.30
2009,07,28,08,33,23.40
2009,07,28,08,34,23.50
2009,07,28,08,35,23.60
2009,07,28,08,36,23.70
2009,07,28,08,37,23.80
2009,07,28,08,38,23.90
2009,07,28,08,39,23.90
2009,07,28,08,40,23.90
2009,07,28,08,41,24.10
2009,07,28,08,42,24.10
2009,07,28,08,43,24.20
2009,07,28,08,44,24.20
2009,07,28,08,45,24.30
2009,07,28,08,46,24.30
2009,07,28,08,47,24.40
2009,07,28,08,48,24.50
2009,07,28,08,49,24.50
2009,07,28,08,50,24.50
2009,07,28,08,51,24.60
2009,07,28,08,52,24.70
2009,07,28,08,53,24.70
2009,07,28,08,54,24.70
2009,07,28,08,55,24.70
2009,07,28,08,56,24.80
2009,07,28,08,57,24.80
2009,07,28,08,58,24.90
2009,07,28,08,59,24.90
2009,07,28,09,00,25.00
2009,07,28,09,01,25.00
2009,07,28,09,02,25.00
2009,07,28,09,03,25.00
2009,07,28,09,04,25.10
2009,07,28,09,05,25.20
2009,07,28,09,06,25.30
2009,07,28,09,07,25.40
2009,07,28,09,08,25.60
2009,07,28,09,09,25.70
2009,07,28,09,10,25.80
2009,07,28,09,11,25.80
2009,07,28,09,12,25.90
2009,07,28,09,13,25.90
2009,07,28,09,14,26.00
2009,07,28,09,15,25.80
2009,07,28,09,16,25.60
2009,07,28,09,17,25.40
2009,07,28,09,18,25.20
2009,07,28,09,19,24.90
2009,07,28,09,20,24.80
2009,07,28,09,21,24.60
2009,07,28,09,22,24.60
2009,07,28,09,23,24.50
2009,07,28,09,24,24.40
2009,07,28,09,25,24.40
2009,07,28,09,26,24.40
2009,07,28,09,27,24.40
2009,07,28,09,28,24.30
2009,07,28,09,29,24.30
2009,07,28,09,30,24.30
2009,07,28,09,31,24.20
2009,07,28,09,32,24.20
2009,07,28,09,33,24.30
2009,07,28,09,34,24.30
2009,07,28,09,35,24.30
2009,07,28,09,36,24.40
2009,07,28,09,37,24.50
2009,07,28,09,38,24.60
2009,07,28,09,39,24.80
2009,07,28,09,40,24.90
2009,07,28,09,41,25.10
2009,07,28,09,42,25.20
2009,07,28,09,43,25.30
2009,07,28,09,44,25.40
2009,07,28,09,45,25.50
2009,07,28,09,46,25.60
2009,07,28,09,47,25.70
2009,07,28,09,48,25.80
2009,07,28,09,49,25.80
2009,07,28,09,50,25.80
2009,07,28,09,51,25.80
2009,07,28,09,52,25.80
2009,07,28,09,53,25.70
2009,07,28,09,54,25.70
2009,07,28,09,55,25.70
2009,07,28,09,56,25.70
2009,07,28,09,57,25.80
2009,07,28,09,58,25.80
2009,07,28,09,59,25.80
2009,07,28,10,00,25.80
2009,07,28,10,01,25.70
2009,07,28,10,02,25.70
2009,07,28,10,03,25.70
2009,07,28,10,04,25.70
2009,07,28,10,05,25.60
2009,07,28,10,06,25.60
2009,07,28,10,07,25.50
2009,07,28,10,08,25.50
2009,07,28,10,09,25.40
2009,07,28,10,10,25.30
2009,07,28,10,11,25.20
2009,07,28,10,12,25.10
2009,07,28,10,13,25.10
2009,07,28,10,14,25.00
2009,07,28,10,15,25.00
2009,07,28,10,16,25.10
2009,07,28,10,17,25.10
2009,07,28,10,18,25.10
2009,07,28,10,19,25.00
2009,07,28,10,20,25.00
2009,07,28,10,21,25.00
2009,07,28,10,22,25.00
2009,07,28,10,23,25.00
2009,07,28,10,24,25.00
2009,07,28,10,25,25.10
2009,07,28,10,26,25.10
2009,07,28,10,27,25.10
2009,07,28,10,28,25.20
2009,07,28,10,29,25.30
2009,07,28,10,30,25.40
2009,07,28,10,31,25.40
2009,07,28,10,32,25.60
2009,07,28,10,33,25.60
2009,07,28,10,34,25.60
2009,07,28,10,35,25.70
2009,07,28,10,36,25.70
2009,07,28,10,37,25.80
2009,07,28,10,38,25.90
2009,07,28,10,39,26.00
2009,07,28,10,40,26.10
2009,07,28,10,41,26.30
2009,07,28,10,42,26.60
2009,07,28,10,43,26.70
2009,07,28,10,44,26.80
2009,07,28,10,45,26.90
2009,07,28,10,46,27.00
2009,07,28,10,47,27.10
2009,07,28,10,48,27.20
2009,07,28,10,49,27.30
2009,07,28,10,50,27.30
2009,07,28,10,51,27.30
2009,07,28,10,52,27.20
2009,07,28,10,53,27.10
2009,07,28,10,54,27.10
2009,07,28,10,55,27.00
2009,07,28,10,56,27.10
2009,07,28,10,57,27.20
2009,07,28,10,58,27.20
2009,07,28,10,59,27.00
2009,07,28,11,00,26.90
2009,07,28,11,01,26.80
2009,07,28,11,02,26.90
2009,07,28,11,03,26.80
2009,07,28,11,04,26.80
2009,07,28,11,05,26.80
2009,07,28,11,06,26.70
2009,07,28,11,07,26.60
2009,07,28,11,08,26.60
2009,07,28,11,09,26.40
2009,07,28,11,10,26.40
2009,07,28,11,11,26.30
2009,07,28,11,12,26.30
2009,07,28,11,13,26.40
2009,07,28,11,14,26.40
2009,07,28,11,15,26.30
2009,07,28,11,16,26.30
2009,07,28,11,17,26.30
2009,07,28,11,18,26.30
2009,07,28,11,19,26.50
2009,07,28,11,20,26.60
2009,07,28,11,21,26.60
2009,07,28,11,22,26.70
2009,07,28,11,23,26.80
2009,07,28,11,24,26.80
2009,07,28,11,25,26.80
2009,07,28,11,26,26.70
2009,07,28,11,27,26.70
2009,07,28,11,28,26.70
2009,07,28,11,29,26.80
2009,07,28,11,30,26.80
2009,07,28,11,31,26.80
2009,07,28,11,32,26.80
2009,07,28,11,33,26.90
2009,07,28,11,34,26.90
2009,07,28,11,35,26.90
2009,07,28,11,36,27.10
2009,07,28,11,37,27.10
2009,07,28,11,38,27.10
2009,07,28,11,39,27.00
2009,07,28,11,40,26.90
2009,07,28,11,41,26.90
2009,07,28,11,42,27.00
2009,07,28,11,43,27.10
2009,07,28,11,44,27.10
2009,07,28,11,45,27.20
2009,07,28,11,46,27.20
2009,07,28,11,47,27.30
2009,07,28,11,48,27.30
2009,07,28,11,49,27.30
2009,07,28,11,50,27.30
2009,07,28,11,51,27.20
2009,07,28,11,52,27.20
2009,07,28,11,53,27.30
2009,07,28,11,54,27.20
2009,07,28,11,55,27.30
2009,07,28,11,56,27.30
2009,07,28,11,57,27.10
2009,07,28,11,58,27.00
2009,07,28,11,59,26.90
2009,07,28,12,00,26.90
2009,07,28,12,01,26.80
2009,07,28,12,02,26.80
2009,07,28,12,03,26.90
2009,07,28,12,04,27.10
2009,07,28,12,05,27.20
2009,07,28,12,06,27.30
2009,07,28,12,07,27.40
2009,07,28,12,08,27.40
2009,07,28,12,09,27.40
2009,07,28,12,10,27.40
2009,07,28,12,11,27.30
2009,07,28,12,12,27.40
2009,07,28,12,13,27.40
2009,07,28,12,14,27.30
2009,07,28,12,15,27.10
2009,07,28,12,16,27.10
2009,07,28,12,17,27.10
2009,07,28,12,18,27.10
2009,07,28,12,19,27.10
2009,07,28,12,20,27.20
2009,07,28,12,21,27.20
2009,07,28,12,22,27.10
2009,07,28,12,23,27.10
2009,07,28,12,24,27.10
2009,07,28,12,25,27.20
2009,07,28,12,26,27.10
2009,07,28,12,27,27.00
2009,07,28,12,28,26.90
2009,07,28,12,29,26.90
2009,07,28,12,30,26.80
2009,07,28,12,31,26.90
2009,07,28,12,32,26.90
2009,07,28,12,33,26.80
2009,07,28,12,34,26.80
2009,07,28,12,35,26.90
2009,07,28,12,36,27.00
2009,07,28,12,37,27.10
2009,07,28,12,38,27.20
2009,07,28,12,39,27.30
2009,07,28,12,40,27.30
2009,07,28,12,41,27.20
2009,07,28,12,42,27.30
2009,07,28,12,43,27.30
2009,07,28,12,44,27.30
2009,07,28,12,45,27.40
2009,07,28,12,46,27.60
2009,07,28,12,47,27.60
2009,07,28,12,48,27.80
2009,07,28,12,49,27.90
2009,07,28,12,50,28.00
2009,07,28,12,51,28.10
2009,07,28,12,52,28.20
2009,07,28,12,53,28.20
2009,07,28,12,54,28.20
2009,07,28,12,55,28.10
2009,07,28,12,56,28.00
2009,07,28,12,57,28.10
2009,07,28,12,58,28.10
2009,07,28,12,59,28.00
2009,07,28,13,00,27.80
2009,07,28,13,01,27.80
2009,07,28,13,02,27.80
2009,07,28,13,03,27.80
2009,07,28,13,04,27.90
2009,07,28,13,05,27.80
2009,07,28,13,06,27.70
2009,07,28,13,07,27.70
2009,07,28,13,08,27.70
2009,07,28,13,09,27.70
2009,07,28,13,10,27.70
2009,07,28,13,11,27.60
2009,07,28,13,12,27.40
2009,07,28,13,13,27.30
2009,07,28,13,14,27.30
2009,07,28,13,15,27.30
2009,07,28,13,16,27.30
2009,07,28,13,17,27.30
2009,07,28,13,18,27.40
2009,07,28,13,19,27.60
2009,07,28,13,20,27.70
2009,07,28,13,21,27.70
2009,07,28,13,22,27.70
2009,07,28,13,23,27.70
2009,07,28,13,24,27.70
2009,07,28,13,25,27.70
2009,07,28,13,26,27.70
2009,07,28,13,27,27.70
2009,07,28,13,28,27.80
2009,07,28,13,29,27.90
2009,07,28,13,30,27.90
2009,07,28,13,31,28.10
2009,07,28,13,32,28.20
2009,07,28,13,33,28.40
2009,07,28,13,34,28.60
2009,07,28,13,35,28.80
2009,07,28,13,36,28.80
2009,07,28,13,37,28.80
2009,07,28,13,38,28.80
2009,07,28,13,39,28.80
2009,07,28,13,40,28.80
2009,07,28,13,41,28.90
2009,07,28,13,42,28.90
2009,07,28,13,43,28.90
2009,07,28,13,44,28.90
2009,07,28,13,45,28.90
2009,07,28,13,46,28.90
2009,07,28,13,47,28.90
2009,07,28,13,48,28.90
2009,07,28,13,49,28.70
2009,07,28,13,50,28.60
2009,07,28,13,51,28.40
2009,07,28,13,52,28.30
2009,07,28,13,53,28.30
2009,07,28,13,54,28.40
2009,07,28,13,55,28.40
2009,07,28,13,56,28.40
2009,07,28,13,57,28.30
2009,07,28,13,58,28.40
2009,07,28,13,59,28.40
2009,07,28,14,00,28.50
2009,07,28,14,01,28.60
2009,07,28,14,02,28.70
2009,07,28,14,03,28.70
2009,07,28,14,04,28.70
2009,07,28,14,05,28.80
2009,07,28,14,06,28.80
2009,07,28,14,07,28.80
2009,07,28,14,08,28.80
2009,07,28,14,09,28.80
2009,07,28,14,10,28.80
2009,07,28,14,11,28.90
2009,07,28,14,12,28.90
2009,07,28,14,13,28.90
2009,07,28,14,14,28.90
2009,07,28,14,15,28.80
2009,07,28,14,16,28.70
2009,07,28,14,17,28.80
2009,07,28,14,18,28.80
2009,07,28,14,19,28.80
2009,07,28,14,20,28.70
2009,07,28,14,21,28.70
2009,07,28,14,22,28.70
2009,07,28,14,23,28.70
2009,07,28,14,24,28.80
2009,07,28,14,25,28.90
2009,07,28,14,26,28.90
2009,07,28,14,27,28.90
2009,07,28,14,28,28.90
2009,07,28,14,29,28.90
2009,07,28,14,30,28.90
2009,07,28,14,31,28.90
2009,07,28,14,32,28.90
2009,07,28,14,33,29.00
2009,07,28,14,34,29.10
2009,07,28,14,35,29.10
2009,07,28,14,36,29.20
2009,07,28,14,37,29.40
2009,07,28,14,38,29.40
2009,07,28,14,39,29.30
2009,07,28,14,40,29.30
2009,07,28,14,41,29.40
2009,07,28,14,42,29.50
2009,07,28,14,43,29.60
2009,07,28,14,44,29.70
2009,07,28,14,45,29.70
2009,07,28,14,46,29.70
2009,07,28,14,47,29.80
2009,07,28,14,48,29.80
2009,07,28,14,49,29.70
2009,07,28,14,50,29.80
2009,07,28,14,51,29.80
2009,07,28,14,52,29.70
2009,07,28,14,53,29.60
2009,07,28,14,54,29.40
2009,07,28,14,55,29.30
2009,07,28,14,56,29.10
2009,07,28,14,57,29.10
2009,07,28,14,58,29.10
2009,07,28,14,59,29.00
2009,07,28,15,00,29.10
2009,07,28,15,01,29.10
2009,07,28,15,02,29.10
2009,07,28,15,03,29.10
2009,07,28,15,04,29.10
2009,07,28,15,05,29.10
2009,07,28,15,06,29.10
2009,07,28,15,07,29.10
2009,07,28,15,08,29.10
2009,07,28,15,09,29.10
2009,07,28,15,10,29.20
2009,07,28,15,11,29.20
2009,07,28,15,12,29.30
2009,07,28,15,13,29.30
2009,07,28,15,14,29.20
2009,07,28,15,15,29.20
2009,07,28,15,16,29.20
2009,07,28,15,17,29.10
2009,07,28,15,18,29.10
2009,07,28,15,19,29.10
2009,07,28,15,20,29.00
2009,07,28,15,21,28.90
2009,07,28,15,22,28.90
2009,07,28,15,23,28.90
2009,07,28,15,24,29.00
2009,07,28,15,25,29.20
2009,07,28,15,26,29.30
2009,07,28,15,27,29.30
2009,07,28,15,28,29.40
2009,07,28,15,29,29.30
2009,07,28,15,30,29.30
2009,07,28,15,31,29.30
2009,07,28,15,32,29.30
2009,07,28,15,33,29.30
2009,07,28,15,34,29.40
2009,07,28,15,35,29.60
2009,07,28,15,36,29.70
2009,07,28,15,37,29.80
2009,07,28,15,38,30.00
2009,07,28,15,39,30.10
2009,07,28,15,40,30.20
2009,07,28,15,41,30.20
2009,07,28,15,42,30.20
2009,07,28,15,43,30.20
2009,07,28,15,44,30.10
2009,07,28,15,45,30.20
2009,07,28,15,46,30.20
2009,07,28,15,47,30.10
2009,07,28,15,48,30.20
2009,07,28,15,49,30.20
2009,07,28,15,50,30.20
2009,07,28,15,51,30.30
2009,07,28,15,52,30.20
2009,07,28,15,53,30.20
2009,07,28,15,54,30.30
2009,07,28,15,55,30.20
2009,07,28,15,56,30.00
2009,07,28,15,57,29.90
2009,07,28,15,58,29.80
2009,07,28,15,59,29.70
2009,07,28,16,00,29.70
2009,07,28,16,01,29.70
2009,07,28,16,02,29.70
2009,07,28,16,03,29.70
2009,07,28,16,04,29.70
2009,07,28,16,05,29.80
2009,07,28,16,06,29.90
2009,07,28,16,07,30.00
2009,07,28,16,08,30.10
2009,07,28,16,09,30.20
2009,07,28,16,10,30.20
2009,07,28,16,11,30.30
2009,07,28,16,12,30.40
2009,07,28,16,13,30.40
2009,07,28,16,14,30.30
2009,07,28,16,15,30.20
2009,07,28,16,16,30.10
2009,07,28,16,17,30.10
2009,07,28,16,18,30.10
2009,07,28,16,19,30.00
2009,07,28,16,20,29.90
2009,07,28,16,21,29.90
2009,07,28,16,22,29.90
2009,07,28,16,23,29.90
2009,07,28,16,24,29.90
2009,07,28,16,25,29.90
2009,07,28,16,26,30.00
2009,07,28,16,27,30.10
2009,07,28,16,28,30.10
2009,07,28,16,29,30.10
2009,07,28,16,30,30.10
2009,07,28,16,31,30.10
2009,07,28,16,32,29.90
2009,07,28,16,33,29.90
2009,07,28,16,34,29.90
2009,07,28,16,35,29.90
2009,07,28,16,36,30.10
2009,07,28,16,37,30.10
2009,07,28,16,38,30.20
2009,07,28,16,39,30.20
2009,07,28,16,40,30.30
2009,07,28,16,41,30.20
2009,07,28,16,42,30.30
2009,07,28,16,43,30.30
2009,07,28,16,44,30.30
2009,07,28,16,45,30.30
2009,07,28,16,46,30.50
2009,07,28,16,47,30.60
2009,07,28,16,48,30.60
2009,07,28,16,49,30.70
2009,07,28,16,50,30.60
2009,07,28,16,51,30.60
2009,07,28,16,52,30.60
2009,07,28,16,53,30.60
2009,07,28,16,54,30.60
2009,07,28,16,55,30.60
2009,07,28,16,56,30.60
2009,07,28,16,57,30.60
2009,07,28,16,58,30.60
2009,07,28,16,59,30.70
2009,07,28,17,00,30.70
2009,07,28,17,01,30.70
2009,07,28,17,02,30.70
2009,07,28,17,03,30.80
2009,07,28,17,04,30.90
2009,07,28,17,05,30.80
2009,07,28,17,06,30.70
2009,07,28,17,07,30.70
2009,07,28,17,08,30.70
2009,07,28,17,09,30.60
2009,07,28,17,10,30.60
2009,07,28,17,11,30.70
2009,07,28,17,12,30.70
2009,07,28,17,13,30.60
2009,07,28,17,14,30.70
2009,07,28,17,15,30.70
2009,07,28,17,16,30.80
2009,07,28,17,17,30.80
2009,07,28,17,18,30.80
2009,07,28,17,19,30.90